TimeEST,TemperatureF,Dew PointF,Humidity,Sea Level PressureIn,VisibilityMPH,Wind Direction,Wind SpeedMPH,Gust SpeedMPH,PrecipitationIn,Events,Conditions,WindDirDegrees,DateUTC
12:53 AM,45.0,39.9,82,29.58,10.0,South,18.4,29.9,0.01,,Overcast,190,2013-02-19 05:53:00
1:53 AM,44.1,39.0,82,29.54,10.0,South,21.9,35.7,0.01,Rain,Light Rain,190,2013-02-19 06:53:00
2:53 AM,45.0,39.9,82,29.50,10.0,South,21.9,34.5,0.01,,Overcast,190,2013-02-19 07:53:00
3:49 AM,39.2,37.4,93,29.52,10.0,WSW,15.0,34.5,0.01,Rain,Light Rain,250,2013-02-19 08:49:00
3:53 AM,39.9,36.0,86,29.54,10.0,WSW,12.7,34.5,0.01,Rain,Light Rain,250,2013-02-19 08:53:00
4:53 AM,35.1,30.9,85,29.57,10.0,WSW,11.5,25.3,0.00,,Overcast,250,2013-02-19 09:53:00
5:30 AM,33.8,30.2,87,29.60,10.0,SW,19.6,31.1,N/A,,Overcast,230,2013-02-19 10:30:00
5:53 AM,32.0,28.9,88,29.64,9.0,WSW,16.1,31.1,N/A,,Overcast,240,2013-02-19 10:53:00
6:23 AM,30.2,24.8,80,29.64,10.0,WSW,15.0,33.4,N/A,,Overcast,250,2013-02-19 11:23:00
6:30 AM,30.2,24.8,80,29.64,10.0,WSW,17.3,26.5,N/A,,Overcast,250,2013-02-19 11:30:00
6:53 AM,28.9,23.0,78,29.66,10.0,WSW,15.0,25.3,N/A,,Overcast,250,2013-02-19 11:53:00
7:53 AM,26.1,19.9,78,29.70,10.0,SW,13.8,31.1,0.00,,Overcast,230,2013-02-19 12:53:00
8:03 AM,24.8,19.4,80,29.69,7.0,WSW,17.3,31.1,0.00,Snow,Light Snow,240,2013-02-19 13:03:00
8:53 AM,24.1,18.0,77,29.74,2.5,WSW,19.6,27.6,0.00,Snow,Light Snow,240,2013-02-19 13:53:00
9:00 AM,24.8,17.6,74,29.72,2.0,SW,17.3,27.6,0.00,Snow,Light Snow,230,2013-02-19 14:00:00
9:05 AM,24.8,17.6,74,29.72,3.0,SW,19.6,31.1,0.00,Snow,Light Snow,230,2013-02-19 14:05:00
9:53 AM,25.0,18.0,75,29.75,6.0,WSW,16.1,28.8,0.00,Snow,Light Snow,240,2013-02-19 14:53:00
10:32 AM,24.8,15.8,69,29.75,2.0,WSW,19.6,34.5,0.00,Snow,Light Snow,250,2013-02-19 15:32:00
10:38 AM,24.8,15.8,69,29.74,3.0,WSW,17.3,32.2,0.00,Snow,Light Snow,240,2013-02-19 15:38:00
10:53 AM,24.1,15.1,69,29.77,6.0,WSW,12.7,31.1,0.00,Snow,Light Snow,250,2013-02-19 15:53:00
11:01 AM,24.8,15.8,69,29.75,4.0,WSW,18.4,28.8,0.00,Snow,Light Snow,250,2013-02-19 16:01:00
11:30 AM,24.8,15.8,69,29.76,5.0,WSW,11.5,31.1,0.00,Snow,Light Snow,250,2013-02-19 16:30:00
11:37 AM,24.8,15.8,69,29.76,2.5,WSW,12.7,27.6,0.00,Snow,Light Snow,240,2013-02-19 16:37:00
11:41 AM,24.8,17.6,74,29.76,1.8,WSW,16.1,27.6,0.00,Snow,Light Snow,240,2013-02-19 16:41:00
11:46 AM,24.8,17.6,74,29.76,2.5,WSW,13.8,24.2,0.00,Snow,Light Snow,240,2013-02-19 16:46:00
11:53 AM,24.1,16.0,71,29.79,3.0,West,12.7,27.6,0.00,Snow,Light Snow,260,2013-02-19 16:53:00
12:05 PM,23.0,15.8,74,29.77,1.5,WSW,18.4,29.9,0.00,Snow,Light Snow,250,2013-02-19 17:05:00
12:14 PM,21.2,15.8,80,29.77,0.5,WSW,16.1,29.9,0.00,Snow,Snow,240,2013-02-19 17:14:00
12:34 PM,21.2,15.8,80,29.78,1.8,WSW,16.1,26.5,0.00,Snow,Light Snow,250,2013-02-19 17:34:00
12:36 PM,23.0,15.8,74,29.78,2.5,WSW,15.0,26.5,0.00,Snow,Light Snow,250,2013-02-19 17:36:00
12:43 PM,21.2,14.0,74,29.78,4.0,WSW,15.0,26.5,0.00,Snow,Light Snow,240,2013-02-19 17:43:00
2:53 PM,21.9,12.9,68,29.84,4.0,West,9.2,24.2,0.00,Snow,Light Snow,260,2013-02-19 19:53:00
3:02 PM,21.2,14.0,74,29.83,2.0,West,8.1,19.6,0.00,Snow,Light Snow,260,2013-02-19 20:02:00
3:15 PM,21.2,12.2,68,29.83,1.8,West,12.7,25.3,0.00,Snow,Light Snow,260,2013-02-19 20:15:00
3:19 PM,21.2,12.2,68,29.83,2.5,WSW,17.3,27.6,0.00,Snow,Light Snow,250,2013-02-19 20:19:00
3:22 PM,21.2,10.4,63,29.84,7.0,West,12.7,27.6,0.00,Snow,Light Snow,260,2013-02-19 20:22:00
3:53 PM,21.0,9.0,60,29.88,10.0,West,13.8,27.6,0.00,,Overcast,260,2013-02-19 20:53:00
4:06 PM,19.4,10.4,68,29.87,2.0,West,11.5,24.2,0.00,Snow,Light Snow,260,2013-02-19 21:06:00
4:13 PM,19.4,12.2,74,29.87,1.0,West,8.1,18.4,0.00,Snow,Light Snow,260,2013-02-19 21:13:00
4:41 PM,19.4,10.4,68,29.89,2.0,West,12.7,26.5,0.00,Snow,Light Snow,260,2013-02-19 21:41:00
4:43 PM,19.4,10.4,68,29.89,4.0,West,10.4,26.5,0.00,Snow,Light Snow,270,2013-02-19 21:43:00
4:53 PM,19.9,9.0,62,29.93,10.0,West,12.7,29.9,0.00,,Overcast,270,2013-02-19 21:53:00
5:53 PM,19.0,9.0,65,29.97,10.0,West,11.5,20.7,N/A,,Overcast,270,2013-02-19 22:53:00
7:53 PM,18.0,7.0,62,30.03,10.0,WSW,16.1,25.3,0.00,,Overcast,250,2013-02-20 00:53:00
8:53 PM,18.0,7.0,62,30.04,10.0,WSW,12.7,21.9,N/A,,Overcast,250,2013-02-20 01:53:00
9:53 PM,17.1,8.1,68,30.05,10.0,WSW,10.4,25.3,N/A,,Overcast,250,2013-02-20 02:53:00
10:23 PM,17.6,6.8,63,30.02,10.0,WSW,8.1,25.3,N/A,,Overcast,250,2013-02-20 03:23:00
10:53 PM,18.0,8.1,65,30.06,10.0,WSW,10.4,18.4,N/A,,Overcast,250,2013-02-20 03:53:00
11:26 PM,17.6,8.6,68,30.03,10.0,West,10.4,19.6,N/A,,Overcast,260,2013-02-20 04:26:00
11:53 PM,18.0,8.1,65,30.07,10.0,WSW,13.8,20.7,0.00,Snow,Light Snow,250,2013-02-20 04:53:00